This demonstration page uses our WeatherBlox Daily Observations layout. Learn more.

Left ArrowRight Arrow

39.92423, -83.80882

Hourly Observations for October 15, 2020

Temp ( °F °C ) Dew Point ( °F °C ) Humidity (%) Winds ( mph kmh ) Pressure ( in mb ) Visibility ( mi km ) Precip ( " mm )
12:56 am 00:56 Clear 63 17.2 47 8.3 56 56 SSW 9 15 29.77 1008 10 16.0934 0 0
1:56 am 01:56 Clear 62 16.7 47 8.3 58 58 SSW 9 15 29.76 1008 10 16.0934 0 0
2:56 am 02:56 Cloudy 62 16.7 48 8.9 60 60 SSW 9 15 29.78 1008 10 16.0934 0 0
3:56 am 03:56 Clear 61 16.1 50 10 67 67 SSW 10 17 29.78 1008 10 16.0934 0 0
4:56 am 04:56 Clear 61 16.1 51 10.6 70 70 SSW 12 19 29.78 1008 10 16.0934 0 0
5:56 am 05:56 Clear 60 15.6 52 11.1 75 75 SSW 12 19 29.78 1009 10 16.0934 0 0
6:56 am 06:56 Clear 58 14.4 53 11.7 84 84 SSW 9 15 29.81 1009 10 16.0934 0 0
7:56 am 07:56 Mostly Cloudy 58 14.4 54 12.2 87 87 SW 8 13 29.82 1010 10 16.0934 0 0
8:56 am 08:56 Cloudy 59 15 54 12.2 83 83 SW 6 9 29.84 1011 10 16.0934 0 0
9:56 am 09:56 Cloudy 62 16.7 51 10.6 67 67 W 12 19 29.89 1012 10 16.0934 0 0
10:56 am 10:56 Cloudy 61 16.1 44 6.7 54 54 WNW 10 17 29.91 1013 10 16.0934 0 0
11:56 am 11:56 Cloudy 56 13.3 43 6.1 62 62 WNW 20 31 29.96 1014 10 16.0934 0 0
12:56 pm 12:56 Cloudy 52 11.1 45 7.2 77 77 WNW 12 19 29.97 1015 10 16.0934 0.001 0.001
1:56 pm 13:56 Cloudy with Light Rain 50 10 49 9.4 96 96 W 12 19 29.97 1015 10 16.0934 0.001 0.001
2:56 pm 14:56 Cloudy with Light Rain 50 10 50 10 100 100 W 6 9 29.99 1016 10 16.0934 0.02 0.508
3:56 pm 15:56 Cloudy with Light Rain 50 10 50 10 100 100 W 6 9 30 1016 10 16.0934 0.01 0.254
4:56 pm 16:56 Cloudy with Light Rain 50 10 50 10 100 100 Calm 30 1016 10 16.0934 0.001 0.001
5:56 pm 17:56 Cloudy with Light Rain 50 10 50 10 100 100 SW 3 6 30.03 1017 10 16.0934 0.02 0.508
6:56 pm 18:56 Cloudy with Light Rain 49 9.4 49 9.4 100 100 SSW 3 6 30.03 1017 10 16.0934 0.01 0.254
7:40 pm 19:40 Cloudy with Light Rain 48 9 48 9 100 100 SW 5 7 30.05 1017 7 11.26538 0.001 0.001
7:51 pm 19:51 Cloudy with Light Rain 48 9 48 9 100 100 SW 5 7 30.06 1018 10 16.0934 0.001 0.001
7:56 pm 19:56 Cloudy with Light Rain 49 9.4 49 9.4 100 100 SW 5 7 30.04 1017 10 16.0934 0.001 0.001
8:06 pm 20:06 Cloudy with Light Rain 48 9 48 9 100 100 W 7 11 30.06 1018 10 16.0934 0.001 0.001
8:19 pm 20:19 Cloudy 48 9 48 9 100 100 W 12 19 30.07 1018 10 16.0934 0.001 0.001
8:33 pm 20:33 Mostly Cloudy 48 9 46 8 94 94 W 13 20 30.08 1018 10 16.0934 0.001 0.001
8:41 pm 20:41 Mostly Cloudy 46 8 45 7 93 93 W 10 17 30.08 1019 10 16.0934 0.001 0.001
8:56 pm 20:56 Mostly Clear 46 7.8 45 7.2 96 96 W 7 11 30.07 1018 10 16.0934 0.001 0.001
9:56 pm 21:56 Clear 46 7.8 46 7.8 100 100 W 6 9 30.09 1019 10 16.0934 0 0
10:56 pm 22:56 Clear 45 7.2 45 7.2 100 100 W 6 9 30.12 1020 10 16.0934 0 0
11:56 pm 23:56 Clear 45 7.2 45 7.2 100 100 W 7 11 30.12 1020 10 16.0934 0 0

Powered by AerisWeather